This is the latest recevied weather packets stored in our database for station/object N4MGC. If no packets are shown the sender has not sent any weather packets the latest 10 day(s).
| Time | Temp. | Humidity | Pressure | Rain* | Wind** | Luminosity | Snow |
|---|---|---|---|---|---|---|---|
| 1777552114 | 12.78° C | 99% | 1014.1 hPa | 0 mm | - | 67 W/m² | - |
| 1777551812 | 12.78° C | 99% | 1014 hPa | 0 mm | - | 59 W/m² | - |
| 1777551509 | 12.78° C | 99% | 1013.9 hPa | 0 mm | - | 53 W/m² | - |
| 1777551206 | 12.78° C | 99% | 1013.9 hPa | 0 mm | - | 37 W/m² | - |
| 1777550903 | 12.78° C | 99% | 1013.7 hPa | 0 mm | - | 24 W/m² | - |
| 1777550599 | 12.78° C | 99% | 1014.1 hPa | 0 mm | - | 26 W/m² | - |
| 1777550295 | 12.78° C | 99% | 1013.6 hPa | 0 mm | - | 23 W/m² | - |
| 1777549992 | 12.78° C | 99% | 1013.7 hPa | 0 mm | - | 21 W/m² | - |
| 1777549689 | 13.33° C | 99% | 1013.4 hPa | 0 mm | - | 15 W/m² | - |
| 1777549383 | 13.33° C | 99% | 1013.4 hPa | 0 mm | - | 11 W/m² | - |
| 1777549081 | 13.33° C | 99% | 1013.1 hPa | 0 mm | - | 12 W/m² | - |
| 1777548776 | 13.33° C | 99% | 1013 hPa | 0 mm | - | 9 W/m² | - |
| 1777548475 | 13.33° C | 99% | 1013.3 hPa | 0 mm | - | 9 W/m² | - |
| 1777548170 | 13.89° C | 99% | 1012.8 hPa | 0 mm | - | 6 W/m² | - |
| 1777547867 | 13.89° C | 99% | 1012.8 hPa | 0 mm | - | 3 W/m² | - |
| 1777547563 | 13.89° C | 99% | 1013 hPa | 0 mm | - | 3 W/m² | - |
| 1777547261 | 13.89° C | 99% | 1012.6 hPa | 0 mm | - | 1 W/m² | - |
| 1777546958 | 13.89° C | 99% | 1012.8 hPa | 0 mm | - | 1 W/m² | - |
| 1777546655 | 13.89° C | 99% | 1012.6 hPa | 0 mm | - | 0 W/m² | - |
| 1777546351 | 13.89° C | 99% | 1012.5 hPa | 0 mm | - | 0 W/m² | - |
| 1777546049 | 14.44° C | 99% | 1012.7 hPa | 0 mm | - | 0 W/m² | - |
| 1777545744 | 14.44° C | 99% | 1012.5 hPa | 0 mm | - | 0 W/m² | - |
| 1777545441 | 14.44° C | 99% | 1012.4 hPa | 0 mm | - | 0 W/m² | - |
| 1777545139 | 14.44° C | 99% | 1012.4 hPa | 0 mm | - | 0 W/m² | - |
| 1777544836 | 14.44° C | 99% | 1012.7 hPa | 0 mm | - | 0 W/m² | - |
* Rain latest hour (hover to see other rain measurements)
** Current wind speed in m/s (hover to see current wind gust speed)